OVZON-3

Last updated on Fri Jul 11 2025 00:02:46 GMT+0000 (Coordinated Universal Time)

1 58698U 24003A 25191.50220837 .00000064 00000+0 00000+0 0 9998 2 58698 0.0138 45.7649 0000252 55.5632 67.8317 1.00272312 4015
UTC large
Height (km)
Speed (km/s)
/
Latitude / Longitude
Inclination (degrees)
Orbital Period (minutes)
Azimuth
Elevation
Range (km)
Doppler Factor

Next 0 passes for location: London (51.5072 / 0.1276)

Sorry there are no passes over London.